{"data":{"norad_id":51960,"intl_designator":"2022-025E","name":"STARLINK-3691","alt_names":[],"object_type":"PAYLOAD","status":"ACTIVE","operator":null,"country":"US","launch_date":"2022-03-09","launch_site_code":"AFETR","launch_vehicle":null,"mission":null,"orbit_class":"UNKNOWN","rcs_meters":null,"size_class":null,"mass_kg":null,"dimensions":null,"purposes":["comms"],"wikipedia_slug":null,"has_3d_model":false,"image_url":null,"decayed_at":null,"tle_current":{"epoch":"2026-05-25T02:59:15.600768Z","epoch_age_seconds":58296,"freshness":"FRESH","line1":"1 51960U 22025E   26145.12448612 -.00000320  00000+0  14415-5 0  9993","line2":"2 51960  53.1616  41.1834 0001181  87.6411 272.4725 15.31716087232548","mean_motion":15.31716087,"eccentricity":0.0001181,"inclination_deg":53.1616,"raan_deg":41.1834,"arg_perigee_deg":87.6411,"mean_anomaly_deg":272.4725,"bstar":1.4415e-6,"rev_number":23254,"period_min":94.012200578266,"perigee_km":469.8831944257,"apogee_km":471.50088784521,"semimajor_km":6848.8290411355,"source":"CELESTRAK","updated_at":"2026-05-25T13:38:16.991594Z"}}}